Regional Weather Roundup
Issued by NWS Austin/San Antonio, TX

Home | Current Version | Previous Version | Text Only | Print | Product List | Glossary On
Versions: 1 2 3 4 5 6 7 8 9 10 11 12 13 14 15 16 17 18 19 20 21 22 23 24 25 26 27 28 29 30 31 32 33 34 35 36 37 38 39 40 41 42 43 44 45 46 47 48 49 50
000
ASUS44 KEWX 241501
RWREWX
SOUTH TEXAS REGIONAL WEATHER ROUNDUP
NATIONAL WEATHER SERVICE AUSTIN/SAN ANTONIO TX
1000 AM CDT SAT AUG 24 2019

NOTE: "FAIR" INDICATED FEW OR NO CLOUDS BELOW 12,000 FEET WITH NO
SIGNIFICANT WEATHER AND/OR OBSTRUCTIONS TO VISIBILITY.

* - THESE STATIONS ARE NOT NWS OR FAA STATIONS...AND ARE NOT SUBJECT
    TO NWS AND FAA QUALITY CONTROL.

TXZ171-172-183>190-241600-
TEXAS HILL COUNTRY AND EDWARDS PLATEAU

CITY           SKY/WX    TMP DP  RH WIND       PRES   REMARKS
JUNCTION       MOSUNNY   79  74  84 NE7       30.00S
*LLANO         MOSUNNY   79  73  83 CALM      30.00S
BURNET         SUNNY     82  72  71 VRB3      29.99S
*HORSESHOE BAY PTSUNNY   81  72  74 CALM      29.98S
*KERRVILLE     PTSUNNY   78  73  86 CALM      29.99F
*FREDERICKSBRG CLOUDY    75  72  88 CALM      30.01R
*ROCKSPRINGS   PTSUNNY   75  70  83 SE3       30.06S
*BOERNE        MOSUNNY   79  73  83 E3        29.99F
*CASTROVILLE   PTSUNNY   83  73  69 E5        29.97S
HONDO          MOSUNNY   82  73  74 E7        29.95S
*UVALDE        SUNNY     78  74  86 E7        29.96S
DEL RIO        SUNNY     83  72  69 S5        29.92S
LAUGHLIN AFB   SUNNY     83  71  68 SE5       29.93S
SPOFFORD       SUNNY     82  74  77 E7        29.88R
*EAGLE PASS    SUNNY     84  72  65 VRB6      29.93R
CARRIZO SPRGS  SUNNY     81  73  78 E3        29.91S
$$

TXZ173-191>194-202-209-217>225-228-241600-
CENTRAL AND SOUTH CENTRAL TEXAS

CITY           SKY/WX    TMP DP  RH WIND       PRES   REMARKS
GEORGETOWN     PTSUNNY   82  74  76 SW7       29.98R
AUSTIN/BERGSTM PTSUNNY   83  75  77 E5        29.94S HX  90
AUSTIN/MABRY   PTSUNNY   84  73  69 CALM      29.96S HX  90
*AUSTIN/EXEC   PTSUNNY   82  75  78 SW3       29.96S
*LAGO VISTA    PTSUNNY   81  73  77 CALM      29.98S
SAN MARCOS     CLOUDY    81  76  84 CALM      29.96S
NEW BRAUNFELS  CLOUDY    82  75  79 SW3       29.94S
RANDOLPH AFB   PTSUNNY   81  75  83 CALM      29.95F
SEGUIN         PTSUNNY   81  75  83 E5        29.99S
KELLY FIELD    MOSUNNY   85  74  70 E5        29.93S HX  92
SAN ANTONIO    PTSUNNY   82  74  76 NE5       29.95F
STINSON FIELD  PTSUNNY   85  75  72 E6        29.93S HX  93
PLEASANTON     SUNNY     82  74  77 NE3       29.93S
*LA GRANGE     MOSUNNY   85  78  80 CALM      29.92S HX  96
*GIDDINGS      MOSUNNY   86  77  74 CALM      29.95S HX  97
*GONZALES      SUNNY     85  77  76 SE3       29.93F HX  96
$$

TXZ163>164-176>182-195>201-210>213-226-227-235-241600-
SOUTHEAST TEXAS

CITY           SKY/WX    TMP DP  RH WIND       PRES   REMARKS
COLLEGE STN    MOSUNNY   85  75  72 VRB3      29.94S HX  93
*BRYAN         PTSUNNY   85  76  75 E5        29.96R HX  94
*CALDWELL      PTSUNNY   84  75  75 NE3       29.95R HX  91
*CROCKETT      PTSUNNY   79  75  89 E5        29.99S
*BRENHAM       MOSUNNY   85  76  73 E3        29.94R HX  94
HUNTSVILLE     PTSUNNY   82  74  76 CALM      29.97R
CONROE         PTSUNNY   81  75  82 NE8       29.96R
HOUSTON BUSH   PTSUNNY   81  75  82 NE6       29.94R
HOUSTON HOBBY  PTSUNNY   83  75  77 NE8       29.93S HX  90
*HOUSTON SW AP FAIR      80  76  88 E6        29.94F
PEARLAND       FAIR      81  76  84 NE8       29.94F
HOUSTON HOOKS  FAIR      83  74  74 E7        29.95R
ELLINGTON FLD  NOT AVBL
SUGAR LAND     FAIR      84  77  79 NE7       29.93S HX  94
*HOUSTON EXEC  FAIR      86  77  74 E7        29.95S HX  97
*CLEVELAND MUN CLOUDY    78  78 100 E3        29.97R
*WHARTON       SUNNY     80  78  92 NE6       29.93F
*COLUMBUS      FAIR      89  76  66 CALM      29.94S HX  99
*EAGLE LAKE    PTSUNNY   86  78  79 E3        29.93S HX  98
$$

TXZ214>216-236>238-241600-
THE UPPER TEXAS COAST

CITY           SKY/WX    TMP DP  RH WIND       PRES   REMARKS
*ORANGE        CLOUDY    82  80  94 E7        29.96S HX  93
PORT ARTHUR    PTSUNNY   83  77  82 NE5       29.93F HX  92
GALVESTON      FAIR      81  78  91 NE7       29.92F
ANGLETON       FAIR      80  77  90 N6        29.92F
*BAY CITY      SUNNY     82  79  91 NE9       29.93S HX  92
PALACIOS       PTSUNNY   86  77  74 NE8       29.92R HX  97
$$

TXZ229>234-239>247-241600-
TEXAS COASTAL BEND AND RIO GRANDE PLAINS

CITY           SKY/WX    TMP DP  RH WIND       PRES   REMARKS
VICTORIA       MOSUNNY   85  77  77 CALM      29.91F HX  95
*BEEVILLE      NOT AVBL
ROCKPORT       PTSUNNY   88  78  72 NW6       29.90S HX 101
*PORT ARANSAS  PTSUNNY   87  80  80 SE7       29.91S HX 102
*PORT LAVACA   SUNNY     84  80  88 NE5       29.92S HX  97
*INGLESIDE     MOSUNNY   88  79  75 CALM      29.90S HX 103
CORPUS CHRISTI PTSUNNY   86  79  79 SE3       29.90R HX  99
CORPUS NAS     MOSUNNY   87  81  82 CALM      29.89S HX 104
*ROBSTOWN      MOSUNNY   86  79  79 SE3       29.91R HX  98
ALICE          MOSUNNY   87  77  72 SE3       29.90S HX  99
KINGSVILLE NAS MOSUNNY   88  79  74 CALM      29.90R HX 103
COTULLA        PTSUNNY   86  72  62 E6        29.91S HX  92
LAREDO         SUNNY     85  74  69 E7        29.90S HX  92
$$

TXZ248>255-241600-
DEEP SOUTH TEXAS

CITY           SKY/WX    TMP DP  RH WIND       PRES   REMARKS
BROWNSVILLE    FAIR      89  82  79 S10G18    29.87S HX 110
PORT ISABEL    FAIR      87  80  79 S12       29.87S HX 103
HARLINGEN      MOSUNNY   90  78  68 S12       29.87R HX 104
*HEBBRONVILLE  MOSUNNY   82  75  77 CALM      29.93R
MCALLEN        SUNNY     90  75  61 S10       29.88R HX 100
*WESLACO       SUNNY     90  74  60 S12G17    29.87R HX  99
FALFURRIAS     MOSUNNY   89  78  69 S3        29.90R HX 102
EDINBURG       FAIR      91  75  59 S7        29.88R HX 102
*ZAPATA        FAIR      86  73  65 SE5       29.91R HX  94
$$

TXZ213>215-236>238-242>244-246-247-251-254-255-241600-
CMAN STATIONS

STATION/POSITION TIME  TEMP    WIND        PRES    WAVE
                       AIR SEA DIR/SP/G            HT/PER
                 (UTC) (F)     (DEG/KT/KT) (MB)    (FT/S)
SABINE PASS      1430           70/  3/  4   N/A
NORTH JETTY/GLS  1424   81 85   50/  7/  8 1012.6
EAGLE POINT      1430           40/  9/ 12   N/A
MORGANS POINT    1430   81 86   60/  5/  7 1013.7
PORT O`CONNOR    1430           10/  7/  8   N/A
PORT ARANSAS     1400   84 86  150/  6/  7 1012.4
MALAQUITE BEACH  1430          120/  5/  5   N/A
BAFFIN BAY       1430          100/  5/  9   N/A
PORT ISABEL      1430          170/  6/  7   N/A
$$



USA.gov is the U.S. government's official web portal to all federal, state and local government web resources and services.